Location: Asheville, NC
(35.6000°N, 82.5500°W)
Time: 19:14:31
(UTC-04:00)

Vanguard 3 - Pass Details

Date: 09 February 2018
Orbit: 507 x 3264 km, 33.4° (Epoch: 27 May)

Event Time Altitude Azimuth Distance (km) Brightness Sun altitude
Rises 03:39:21 0° 265° (W) 5,447 - -45.7°
Reaches altitude 10° 03:45:17 10° 243° (WSW) 5,009 - -44.5°
Maximum altitude 03:51:59 14° 216° (SW) 5,149 - -43.2°
Exits shadow 03:58:26 11° 194° (SSW) 5,770 11.2 -41.9°
Drops below altitude 10° 03:59:48 10° 190° (S) 5,942 11.3 -41.7°
Sets 04:08:35 0° 170° (S) 7,199 12.0 -39.9°
